Retour au catalogue

COSMOS 2590

ActifMilitaireHEO
NORAD 64527·PAYLOAD·🇷🇺 Russia

Lancé Jun 19, 2025 depuis Plesetsk Cosmodrome

Loading…

Prochains Passages (prochaines 24 heures)

TLE

FraisSource: Space-Track

Époque: Sep 13, 2026, 22:37 UTC

1 64527U 25131D   26256.94268950 -.00000213  00000-0  00000+0 0  9996
2 64527   0.8055  82.5200 3640272  20.1569 313.5146  1.00214440  4494

Suivez COSMOS 2590 en temps réel avec AllMySat

Download on the App Store